DW5210 Weather Reports


time (UTC)temp
F
wind
direction
speed
knots
gust
knots
rain 1hr
in
rain 24hr
in
rain mn
in
humidity
%
barometer
mb
20260510153505 55 21 7.0 14.8 0.00 0.00 0.00 68 1013.2
20260510150506 54 42 6.1 17.4 0.00 0.00 0.00 70 1013.7
20260510143505 54 39 0.9 11.3 0.00 0.00 0.00 71 1014.2
20260510133505 55 50 5.2 12.2 0.00 0.00 0.00 70 1014.3
20260510130505 55 45 4.3 11.3 0.00 0.00 0.00 71 1014.4
20260510120506 57 47 4.3 15.6 0.00 0.00 0.00 67 1014.7
20260510120006 57 58 5.2 15.6 0.00 0.00 0.00 66 1014.7
20260510113505 58 69 3.5 15.6 0.00 0.00 0.00 65 1014.8
20260510113005 58 65 6.1 15.6 0.00 0.00 0.00 64 1015.0
20260510110006 59 39 5.2 17.4 0.00 0.00 0.00 63 1015.1
20260510103505 58 79 5.2 11.3 0.00 0.00 0.00 66 1015.3
20260510103005 57 71 5.2 13.9 0.00 0.00 0.00 68 1015.3
20260510100505 56 68 2.6 12.2 0.00 0.00 0.00 70 1015.4
20260510093505 54 64 5.2 15.6 0.00 0.00 0.00 71 1015.8
20260510093005 54 30 5.2 14.8 0.00 0.00 0.00 71 1015.7
20260510090005 53 32 4.3 11.3 0.00 0.00 0.00 74 1015.8
20260510073506 51 57 4.3 12.2 0.00 0.00 0.00 79 1016.2
20260510073005 51 24 6.1 12.2 0.00 0.00 0.00 79 1016.1
20260510063005 49 40 3.5 8.7 0.00 0.00 0.00 83 1016.0
20260510060505 49 29 5.2 13.0 0.00 0.00 0.00 83 1015.9
20260510050005 48 35 2.6 8.7 0.00 0.00 0.00 84 1015.9
20260510040505 48 25 4.3 8.7 0.00 0.00 0.00 84 1015.9
20260510033505 49 22 3.5 10.4 0.00 0.00 0.00 83 1016.1
20260510030505 49 32 2.6 7.8 0.00 0.00 0.00 83 1016.3
20260510030005 49 33 2.6 7.8 0.00 0.00 0.00 83 1016.3
20260510020505 50 31 1.7 7.8 0.00 0.00 0.00 79 1016.3
20260510020005 50 31 2.6 7.8 0.00 0.00 0.00 79 1016.2
20260510013505 51 21 4.3 10.4 0.00 0.00 0.00 73 1016.1
20260510013005 51 33 2.6 10.4 0.00 0.00 0.00 73 1016.1
20260510000505 52 49 0.9 10.4 0.00 0.00 0.00 68 1015.9
20260509233005 53 73 0.0 1.7 0.00 0.00 0.00 63 1015.8
20260509230505 54 73 1.7 6.1 0.00 0.00 0.00 61 1015.8
20260509230005 54 76 0.9 5.2 0.00 0.00 0.00 60 1015.8
20260509223505 55 78 0.9 6.1 0.00 0.00 0.00 58 1015.8
20260509223005 55 77 1.7 6.1 0.00 0.00 0.00 58 1015.8
20260509220504 55 84 0.0 6.1 0.00 0.00 0.00 57 1015.8
20260509220005 55 84 1.7 6.1 0.00 0.00 0.00 56 1015.8
20260509203505 58 75 0.0 8.7 0.00 0.00 0.00 52 1015.3
20260509200005 59 118 0.9 10.4 0.00 0.00 0.00 52 1015.2
20260509190006 62 116 0.0 10.4 0.00 0.00 0.00 51 1014.7
20260509183005 63 119 4.3 13.0 0.00 0.00 0.00 49 1014.5
20260509180504 64 120 1.7 7.8 0.00 0.00 0.00 48 1014.3
20260509180005 65 120 3.5 10.4 0.00 0.00 0.00 48 1014.3
20260509173005 66 104 4.3 6.1 0.00 0.00 0.00 46 1014.1
20260509170005 67 136 4.3 10.4 0.00 0.00 0.00 48 1014.2
20260509163504 68 77 1.7 8.7 0.00 0.00 0.00 44 1014.1
20260509163005 68 45 2.6 8.7 0.00 0.00 0.00 45 1014.2